This demonstration page uses our WeatherBlox Daily Observations layout. Learn more.

41.55636, -103.73856

Hourly Observations for January 28, 2020

Temp ( °F °C ) Dew Point ( °F °C ) Humidity (%) Winds ( mph kmh ) Pressure ( in mb ) Visibility ( mi km ) Precip ( " mm )
1:58 am 01:58 Mostly Cloudy with Light Drizzle 36 2 33 0.3 89 89 NW 17 28 30.07 1018 10 16.0934 0 0
2:58 am 02:58 Mostly Cloudy 33 0.5 31 -0.5 93 93 WNW 15 24 30.09 1019 10 16.0934 0 0
3:58 am 03:58 Mostly Cloudy 32 -0.1 30 -1.2 92 92 NW 17 28 30.11 1020 10 16.0934 0 0
4:58 am 04:58 Mostly Cloudy 33 0.5 30 -1.1 89 89 NW 22 35 30.1 1019 10 16.0934 0 0
5:58 am 05:58 Windy with Snow Showers Likely 32 0.1 31 -0.7 94 94 NW 24 39 30.12 1020 6 9.65604 0 0
6:59 am 06:59 Mostly Cloudy with Scattered Snow Showers 32 -0.1 31 -0.8 95 95 NNW 21 33 30.21 1023 10 16.0934 0 0
7:58 am 07:58 Mostly Cloudy 31 -0.4 30 -1.2 94 94 NW 17 28 30.14 1021 10 16.0934 0 0
8:58 am 08:58 Mostly Cloudy 30 -1.2 28 -2 94 94 NW 15 24 30.15 1021 10 16.0934 0 0
9:58 am 09:58 Mostly Clear 29 -1.8 27 -2.8 93 93 WNW 10 17 30.16 1021 10 16.0934 0 0
10:58 am 10:58 Clear 28 -2 26 -3.2 92 92 NW 13 20 30.16 1022 10 16.0934 0 0
11:58 am 11:58 Mostly Cloudy 28 -2.3 25 -4 88 88 WNW 15 24 30.16 1022 10 16.0934 0 0
12:58 pm 12:58 Clear 26 -3.5 21 -6 83 83 WNW 13 20 30.17 1022 10 16.0934 0 0
1:58 pm 13:58 Clear 19 -7 16 -8.8 87 87 WSW 7 11 30.22 1023 10 16.0934 0 0
2:58 pm 14:58 Sunny 24 -4.4 19 -7.3 80 80 WNW 10 17 30.22 1023 10 16.0934 0 0
3:58 pm 15:58 Sunny 28 -2.1 21 -5.9 76 76 W 8 13 30.2 1023 10 16.0934 0 0
4:58 pm 16:58 Sunny 33 0.4 25 -4.1 72 72 WNW 8 13 30.19 1022 10 16.0934 0 0
5:58 pm 17:58 Sunny 38 3.2 22 -5.5 53 53 NW 16 26 30.15 1021 10 16.0934 0 0
6:58 pm 18:58 Sunny 41 4.9 19 -7.2 42 42 NNW 14 22 30.11 1020 10 16.0934 0 0
7:58 pm 19:58 Sunny 41 5.1 16 -8.9 36 36 NW 13 20 30.09 1019 10 16.0934 0 0
8:58 pm 20:58 Sunny 43 6 13 -10.7 29 29 NW 12 19 30.06 1018 10 16.0934 0 0
9:58 pm 21:58 Sunny 43 6.1 11 -11.9 26 26 NW 14 22 30.06 1018 10 16.0934 0 0
10:58 pm 22:58 Sunny 42 5.8 13 -10.8 29 29 N 9 15 30.05 1018 10 16.0934 0 0
11:58 pm 23:58 Sunny 37 3 15 -9.2 41 41 ENE 5 7 30.08 1019 10 16.0934 0 0

Powered by AerisWeather